Regional Weather Roundup
Issued by NWS Green Bay, WI

Home | Current Version | Previous Version | Graphics & Text | Print | Product List | Glossary Off
Versions: 1 2 3 4 5 6 7 8 9 10 11 12 13 14 15 16 17 18 19 20 21 22 23 24 25 26 27 28 29 30 31 32 33 34 35 36 37 38 39 40 41 42 43 44 45 46 47 48 49 50

000
ASUS43 KGRB 260700
RWRGRB

NORTH-CENTRAL AND NORTHEAST WISCONSIN REGIONAL WEATHER ROUNDUP
NATIONAL WEATHER SERVICE GREEN BAY WI
200 AM CDT TUE JUL 26 2016

WIZ005-009-010>012-018-019-260800-
NORTH CENTRAL WISCONSIN

CITY           SKY/WX    TMP DP  RH WIND       PRES   REMARKS
IRONWOOD       CLEAR     63  63 100 SW3       30.00S
MANITOWISH WTR NOT AVBL
ARBOR VITAE    NOT AVBL
EAGLE RIVER    NOT AVBL
LAND O LAKES   NOT AVBL
RHINELANDER    CLEAR     63  61  93 W5        30.06F
PHILLIPS       NOT AVBL
ANTIGO         NOT AVBL
TOMAHAWK       NOT AVBL
MERRILL        NOT AVBL
$$

WIZ013-073-260800-
NORTHEAST WISCONSIN

CITY           SKY/WX    TMP DP  RH WIND       PRES   REMARKS
IRON MOUNTAIN  CLEAR     59  55  87 CALM      30.02R
MARINETTE      CLEAR    N/A N/A N/A W3        30.01F
$$

WIZ017-030-035>037-045-260800-
CENTRAL WISCONSIN

CITY           SKY/WX    TMP DP  RH WIND       PRES   REMARKS
MEDFORD        NOT AVBL
WAUSAU         CLEAR     65  61  87 CALM      30.05S
MOSINEE        NOT AVBL
MARSHFIELD     CLEAR     65  60  84 CALM      30.06S
WISC RAPIDS    CLEAR     63  60  90 CALM      30.07S FOG
STEVENS POINT  NOT AVBL
WAUPACA        NOT AVBL
SHAWANO        NOT AVBL
CLINTONVILLE   NOT AVBL
WAUTOMA        PTCLDY    63  61  93 CALM      30.06S
$$

WIZ038-039-048-051-260800-
FOX VALLEY

CITY           SKY/WX    TMP DP  RH WIND       PRES   REMARKS
NWS GREEN BAY  PTCLDY    65  65 100 W7        30.02S
APPLETON       NOT AVBL
OSHKOSH        CLEAR     68  61  78 W5        30.03S
FOND DU LAC    CLEAR     64  60  87 CALM      30.04S
$$

WIZ022-050-052-260800-
EAST CENTRAL WISCONSIN

CITY           SKY/WX    TMP DP  RH WIND       PRES   REMARKS
EPHRAIM        NOT AVBL
WASHINGTON ISL NOT AVBL
STURGEON BAY   CLEAR     66  64  93 CALM      30.02F
MANITOWOC      NOT AVBL
SHEBOYGAN      CLEAR     66  62  87 NW5       30.03S
$$

LMZ563-521-522-541>543-260800-
LAKESHORE

STATION/POSITION TIME  TEMP    WIND        PRES    VSBY  WAVE
                       AIR SEA DIR/SP/G                  HT/PER
                 (UTC) (F)     (DEG/KT/KT) (MB)    (MI)  (FT/S)
SHEBOYGAN LKSHOR 0600   74     280/  8/ 10 1016.5R
KEWAUNEE LKSHORE 0600   68     300/  4/  5 1015.7R
ALGOMA MARINA    0613          320/  6/  7   N/A
NORTHPORT PIER   0600   68      CALM  /  2 1015.9R
N MID LAKE BUOY  0550   70 70  170/  4/  6 1015.2R         1
S GREEN BAY BUOY 0630   72 74  300/  6/  8   N/A
SISTER BAY LKSHO 0621   69        CALM       N/A
CHAMBERS ISLAND  0640   64      CALM  /  2 1015.9S
MENOMINEE LKSHOR 0600   72     280/  3/  5 1015.3R
$$




USA.gov is the U.S. government's official web portal to all federal, state and local government web resources and services.